Location: Houston
(29.7630°N, 95.3630°W)
Time: 13:11:40
(UTC-06:00)

Daily predictions for brighter satellites

Satellite Brightness Start Highest point End
(mag) Time Altitude Azimuth Time Altitude Azimuth Time Altitude Azimuth
Okean 3 3.4 18:29:50 10° N 18:34:07 70° E 18:38:21 10° SSE
Meteosat 1 Rocket2 3.7 18:31:38 10° W 18:35:04 41° SSW 18:38:48 10° ESE
Cosmos 374 Rocket 4.4 18:36:07 10° NNW 18:39:58 72° ENE 18:44:45 10° SE
ISS -0.9 18:41:06 10° WNW 18:43:52 25° SW 18:46:36 10° S
BREEZE-M DEB (TANK) 3.9 18:37:29 10° SSW 18:45:00 42° SE 18:47:59 10° ENE
Cosmos 1697 Rocket 3.1 18:40:04 10° NNW 18:45:41 70° WSW 18:51:16 10° S
SJ-6B 3.7 18:42:14 10° SE 18:45:47 29° ENE 18:49:18 10° NNE
Cosmos 1980 Rocket 2.2 18:42:37 10° NNW 18:48:17 69° ENE 18:53:56 10° SSE
Cosmos 407 Rocket 3.8 18:44:20 10° S 18:49:16 45° ESE 18:54:16 10° NNE
METEOR-M 4.2 18:48:34 10° SSE 18:53:47 57° ENE 18:59:01 10° N
Cosmos 1992 Rocket 4.3 18:49:19 10° N 18:54:19 44° ENE 18:59:18 10° SE
Cosmos 1975 Rocket 2.9 18:50:28 10° N 18:54:46 73° E 18:59:04 10° S
NOAA 12 4.1 18:56:10 10° SSE 19:01:25 71° ENE 19:06:43 10° N
Resurs 01 Rocket 2.6 19:00:03 10° SE 19:03:37 24° ENE 19:07:11 10° NNE
ERBS 3.4 19:00:55 10° NNW 19:03:55 27° NE 19:05:30 19° E
Cosmos 44 4.2 19:01:30 10° N 19:05:00 23° NE 19:06:46 18° E
Nadezhda 1 Rocket 3.9 19:01:45 10° N 19:07:49 70° E 19:13:49 10° SSE
H-2A ROCKET BODY 4.2 18:43:03 10° WNW 19:08:37 52° SW 19:13:48 10° SE
Cosmos 1190 Rocket 4.0 19:06:38 10° SSW 19:11:49 85° WNW 19:17:02 10° NNE
Meteor 1-20 Rocket 4.3 19:06:48 10° S 19:12:35 89° WNW 19:18:27 10° N
Cosmos 1536 Rocket 4.2 19:09:31 10° NNE 19:13:31 32° E 19:17:31 10° SE
ASTRO E2 2.7 19:11:56 10° W 19:15:57 71° N 19:18:04 26° E
SL-16 R/B 2.6 19:11:50 10° N 19:17:07 39° ENE 19:22:22 10° SE
Cosmos 2360 4.3 19:12:26 10° NNW 19:18:10 83° WSW 19:23:53 10° SSE
FREGAT/IRIS 2.6 19:15:32 10° S 19:18:35 85° WSW 19:21:41 10° NNW
Okean 1 3.6 19:16:40 10° N 19:20:34 45° E 19:24:28 10° SSE
Cosmos 1140 Rocket 3.9 19:18:13 10° SSE 19:22:52 36° E 19:26:22 16° NE
Spot 2 Rocket 3.8 19:19:38 10° SE 19:24:22 43° ENE 19:29:09 10° N
Cosmos 1633 2.8 19:22:09 10° SSE 19:25:40 45° E 19:28:24 15° NNE
Helios 1B rocket 2.9 19:27:48 29° ENE 19:29:03 37° E 19:32:52 10° SSE
Cosmos 1709 Rocket 3.9 19:27:13 10° S 19:33:30 83° E 19:39:43 10° N
Resurs 1-3 3.8 19:29:44 12° SE 19:33:31 45° ENE 19:37:42 10° N
HJ-1C 3.3 19:32:24 10° SSE 19:35:46 89° E 19:39:09 10° N
Cosmos 2322 Rocket 2.1 19:31:45 10° NNW 19:37:19 62° ENE 19:42:27 12° SSE
ALOS 2.2 19:34:57 10° SSE 19:39:38 90° NW 19:44:18 10° NNW
Cosmos 1954 Rocket 3.8 19:35:57 10° S 19:41:05 81° ESE 19:46:18 10° NNE
ATLAS CENTAUR R/B 3.4 19:35:59 10° S 19:41:26 26° SE 19:41:26 26° SE
Cosmos 614 Rocket 4.2 19:37:20 10° S 19:42:07 42° ESE 19:42:24 41° E
Cosmos 1300 Rocket 3.4 19:38:37 10° S 19:42:57 73° E 19:47:21 10° N
Meteor 1-11 Rocket 3.7 19:38:13 10° S 19:43:49 67° E 19:49:35 10° NNE
H-2A R/B 2.6 19:45:44 60° NE 19:45:44 60° NE 19:49:00 10° N
PSLV R/B 3.8 19:45:55 10° NW 19:48:21 48° NW 19:48:21 48° NW
SL-8 R/B 3.6 19:49:25 10° NW 19:54:13 65° NE 19:54:34 63° ENE
CENTAUR R/B 3.7 19:51:08 10° NW 19:59:06 59° WSW 20:07:16 10° S
FENGYUN 3A 4.1 19:54:16 10° S 19:59:35 62° W 20:04:57 10° NNW
Longmarch 3A Rocket 3.6 19:59:28 10° WSW 19:59:58 17° WSW 19:59:58 17° WSW
GOES 2 Rocket 3.4 20:00:01 10° W 20:04:14 50° SSW 20:04:14 50° SSW
Delta R/B 3.9 19:55:04 10° WSW 20:05:49 60° S 20:05:58 59° SSE
Okean 1 Rocket 3.2 20:03:28 10° S 20:07:55 75° W 20:08:55 53° NNW
Cosmos 2219 4.1 20:10:01 10° S 20:13:22 35° S 20:13:22 35° S
Cosmos 2360 Rocket 3.4 20:25:55 10° NNW 20:28:48 31° N 20:28:48 31° N
Resurs 01 Rocket 4.0 20:36:37 10° SSW 20:39:57 21° W 20:43:19 10° NW
H-2A R/B 4.0 20:44:22 10° SW 21:22:25 - ENE 20:45:34 22° SSW
SL-16 R/B 4.4 20:56:44 10° NW 21:00:52 21° W 21:04:32 12° SW
